Location: Milton Keynes
(52.0316°N, 0.7531°W)
Time: 01:27:02
(UTC+00:00)

ISS - Pass Details

Date: 02 February 2019
Orbit: 403 x 411 km, 51.6° (Epoch: 19 February)

Event Time Altitude Azimuth Distance (km) Brightness Sun altitude
Rises 18:38:25 0° 277° (W) 2,337 1.6 -16.4°
Reaches altitude 10° 18:40:30 10° 276° (W) 1,477 0.3 -16.7°
Maximum altitude 18:43:49 75° 191° (S) 430 -3.8 -17.2°
Enters shadow 18:44:35 48° 119° (ESE) 544 -3.6 -17.4°
